DateTime,F1_A11,F1_S11,BsB_S11,BsG_S11,BsR_S11,BbsB_S11,BbsG_S11,BbsR_S11,BaB_A11,BaG_A11,BaR_A11,T_S11,U_S11,P_S11,T1_A11
2016-12-12T00:00:00Z,0000380,21000600,,,,,,,,,,26.4,00.4,0642.9,34.6
2016-12-12T00:01:00Z,0000380,21000600,,,,,,,,,,26.4,00.4,0642.9,34.6
2016-12-12T00:02:00Z,0000380,21000600,,,,,,,,,,26.4,00.4,0642.9,34.6
2016-12-12T00:03:00Z,0000380,61000600,,,,,,,,,,26.4,00.4,0642.9,34.6
2016-12-12T00:04:00Z,0000380,41000600,-000.73,0000.02,0000.00,-000.62,0000.11,0000.14,0000.17,-000.17,-000.02,26.4,00.6,0643.8,34.6
2016-12-12T00:05:00Z,0000380,01000600,-000.11,-000.17,0000.35,-000.38,-000.04,-000.01,0000.05,0000.09,-000.03,26.3,00.6,0643.9,34.6
2016-12-12T00:06:00Z,0000380,01000600,-000.18,0000.20,-000.20,-000.42,-000.36,-000.35,-000.10,0000.23,0000.20,26.3,00.6,0643.9,34.6
2016-12-12T00:07:00Z,0000380,01000600,0000.06,-000.31,0000.34,-000.20,-000.25,0000.08,0000.18,-000.18,0000.04,26.3,00.5,0643.9,34.6
2016-12-12T00:08:00Z,0000380,01000600,0000.31,0000.12,-000.33,0000.56,-000.24,-000.31,0000.11,0000.16,-000.07,26.3,00.5,0643.9,34.6
2016-12-12T00:09:00Z,0000380,01000600,0000.55,0000.07,0000.10,0000.45,0000.03,0000.12,-000.08,0000.07,0000.28,26.3,00.5,0643.9,34.6
2016-12-12T00:10:00Z,0000380,01000600,-000.59,0000.74,-000.12,-000.21,-000.30,-000.19,0000.29,-000.07,-000.24,26.3,00.6,0643.9,34.6
2016-12-12T00:11:00Z,0000380,01000600,0000.18,-000.24,-000.04,0000.11,-000.07,0000.34,0000.02,0000.10,-000.13,26.3,00.7,0643.9,34.6
2016-12-12T00:12:00Z,0000380,01000600,0000.92,-000.40,0000.36,-000.11,-000.62,0000.31,-000.10,0000.11,0000.02,26.3,00.6,0643.9,34.6
2016-12-12T00:13:00Z,0000380,01000600,-000.03,-000.29,-000.27,-000.68,-000.35,-000.24,0000.05,-000.22,-000.10,26.3,00.5,0643.9,34.7
2016-12-12T00:14:00Z,0000380,01000600,0000.90,-000.06,-000.38,-000.35,-000.02,0000.36,-000.12,0000.06,0000.31,26.4,00.6,0643.9,34.7
2016-12-12T00:15:00Z,0000380,01000600,0000.37,-000.77,0000.60,-000.78,-000.13,0000.06,0000.01,-000.00,0000.31,26.4,00.5,0643.9,34.7
2016-12-12T00:16:00Z,0000380,01000600,0001.00,-000.83,0000.46,-000.08,-000.53,0000.08,0000.00,0000.02,-000.13,26.5,00.5,0643.9,34.7
2016-12-12T00:17:00Z,0000380,01000600,-000.20,-000.06,-000.03,0000.12,-000.10,0000.47,-000.00,0000.16,-000.14,26.5,00.4,0643.9,34.7
2016-12-12T00:18:00Z,0000380,01000600,0000.48,0000.05,0000.26,0000.28,0000.06,-000.02,-000.09,-000.23,0000.07,26.5,00.5,0644.0,34.7
2016-12-12T00:19:00Z,0000380,01000600,0000.34,-000.18,0000.10,-000.76,0000.09,0000.16,-000.10,-000.04,0000.20,26.5,00.5,0644.0,34.7
2016-12-12T00:20:00Z,0000380,01000600,0000.67,0000.12,0000.04,-000.32,-000.30,-000.00,0000.05,0000.05,-000.09,26.5,00.5,0643.9,34.7
2016-12-12T00:21:00Z,0000380,01000600,0000.44,-000.19,-000.06,-000.57,-000.25,0000.18,0000.11,0000.16,-000.09,26.5,00.5,0643.9,34.7
2016-12-12T00:22:00Z,0000380,01000600,-000.33,-000.35,0000.20,-000.66,-000.25,0000.12,0000.07,-000.04,-000.07,26.5,00.5,0643.8,34.7
2016-12-12T00:23:00Z,0000380,01000600,0000.14,-000.16,0000.12,-000.22,0000.04,0000.05,-000.01,-000.11,-000.13,26.4,00.5,0643.9,34.7
2016-12-12T00:24:00Z,0000380,01000600,0000.22,-000.85,0000.38,-000.39,-000.28,0000.44,-000.09,-000.01,-000.11,26.4,00.5,0643.9,34.6
2016-12-12T00:25:00Z,0000380,01000600,-000.04,0000.02,-000.16,0000.39,0000.07,0000.07,0000.09,0000.17,0000.54,26.4,00.5,0643.9,34.7
2016-12-12T00:26:00Z,0000380,01000600,0000.49,-000.19,-000.12,-000.33,-000.12,-000.26,-000.02,-000.20,-000.33,26.5,00.5,0643.9,34.7
2016-12-12T00:27:00Z,0000380,01000600,0000.26,-000.05,0000.13,-000.02,0000.29,0000.07,0000.07,-000.02,0000.02,26.5,00.5,0644.0,34.7
2016-12-12T00:28:00Z,0000380,01000600,0000.25,-000.06,0000.25,-000.45,-000.29,-000.05,-000.21,0000.08,0000.07,26.5,00.4,0644.0,34.7
2016-12-12T00:29:00Z,0000380,01000600,-000.22,0000.23,0000.49,-000.24,0000.27,0000.04,0000.16,0000.03,-000.10,26.6,00.4,0644.0,34.7
2016-12-12T00:30:00Z,0000380,01000600,0000.13,0000.22,0000.01,-000.52,0000.53,0000.18,-000.25,0000.03,0000.00,26.6,00.4,0644.0,34.7
2016-12-12T00:31:00Z,0000380,01000600,0000.94,0000.29,0000.30,-000.53,0000.28,-000.23,0000.03,-000.10,-000.18,26.6,00.3,0644.1,34.7
2016-12-12T00:32:00Z,0000380,01000600,0000.43,-000.60,0000.10,-000.73,-000.51,0000.11,0000.03,0000.09,-000.02,26.6,00.4,0644.1,34.7
2016-12-12T00:33:00Z,0000380,01000600,0001.06,-000.20,0000.41,0000.46,-000.15,0000.36,0000.09,0000.01,0000.52,26.6,00.3,0644.0,34.7
2016-12-12T00:34:00Z,0000380,01000600,-000.15,0000.22,-000.06,0000.16,-000.14,-000.01,-000.05,0000.16,-000.02,26.7,00.3,0644.0,34.7
2016-12-12T00:35:00Z,0000380,01000600,0000.01,-000.13,0000.09,-000.64,-000.10,0000.08,-000.06,-000.17,-000.05,26.6,00.4,0644.1,34.7
2016-12-12T00:36:00Z,0000380,01000600,0000.02,0000.15,0000.26,0000.15,0000.20,0000.17,-000.11,-000.09,-000.00,26.6,00.3,0644.1,34.7
2016-12-12T00:37:00Z,0000380,01000600,-001.09,-000.51,0000.29,-000.44,-000.08,0000.28,-000.05,-000.14,-000.32,26.6,00.3,0644.1,34.7
2016-12-12T00:38:00Z,0000380,01000600,0000.26,-000.38,-000.08,0000.09,-000.39,0000.10,-000.11,0000.10,-000.19,26.6,00.3,0644.1,34.7
2016-12-12T00:39:00Z,0000380,01000600,0000.42,-000.41,0000.30,-000.70,0000.08,0000.22,0000.17,-000.06,0000.23,26.6,00.3,0644.1,34.7
2016-12-12T00:40:00Z,0000380,01000600,0000.11,-000.12,0000.40,0000.02,-000.15,0000.11,0000.08,-000.00,0000.19,26.6,00.3,0644.1,34.7
2016-12-12T00:41:00Z,0000380,01000600,-001.10,-000.32,-000.04,-000.57,-000.10,-000.12,-000.20,0000.15,-000.11,26.6,00.3,0644.1,34.7
2016-12-12T00:42:00Z,0000380,01000600,0000.40,0000.01,0000.32,0000.16,0000.11,0000.01,0000.05,-000.25,0000.22,26.6,00.3,0644.1,34.7
2016-12-12T00:43:00Z,0000380,01000600,0000.48,0000.61,0000.02,-001.11,0000.13,0000.03,0000.11,0000.21,-000.12,26.7,00.3,0644.1,34.7
2016-12-12T00:44:00Z,0000380,01000600,0000.15,0000.17,-000.24,-000.35,-000.02,-000.31,-000.01,0000.01,-000.03,26.7,00.3,0644.1,34.7
2016-12-12T00:45:00Z,0000380,01000600,0000.66,0000.44,0000.16,-001.03,-000.12,-000.21,-000.15,-000.20,0000.06,26.7,00.2,0644.0,34.7
2016-12-12T00:46:00Z,0000380,01000600,0000.17,-000.32,-000.16,-000.32,-000.13,-000.15,0000.20,0000.20,0000.04,26.7,00.2,0644.0,34.7
2016-12-12T00:47:00Z,0000380,01000600,-000.73,0000.17,0000.24,-000.26,-000.07,-000.01,-000.00,-000.01,-000.22,26.7,00.2,0644.0,34.7
2016-12-12T00:48:00Z,0000380,01000600,0000.41,-000.05,-000.11,-000.18,0000.07,-000.15,-000.17,-000.10,0000.20,26.7,00.3,0644.1,34.7
2016-12-12T00:49:00Z,0000380,01000600,-001.26,-000.74,0000.35,-000.27,0000.55,0000.19,-000.01,0000.13,0000.19,26.7,00.2,0644.1,34.7
2016-12-12T00:50:00Z,0000380,01000600,0000.18,-000.10,0000.21,-000.26,0000.08,0000.04,-000.18,-000.15,-000.48,26.7,00.2,0644.0,34.7
2016-12-12T00:51:00Z,0000380,01000600,0000.12,-000.13,0000.32,-000.36,-000.09,-000.07,0000.05,-000.02,0000.15,26.6,00.2,0644.0,34.7
2016-12-12T00:52:00Z,0000380,01000600,0000.60,0000.06,0000.29,-000.26,0000.06,0000.21,0000.23,0000.23,0000.12,26.6,00.2,0644.0,34.7
2016-12-12T00:53:00Z,0000380,01000600,0000.01,0000.12,-000.18,-000.50,-000.49,-000.48,0000.00,-000.09,-000.06,26.6,00.3,0644.0,34.7
2016-12-12T00:54:00Z,0000380,01000600,-000.05,-000.18,0000.28,-000.82,-000.15,0000.26,-000.06,0000.14,-000.47,26.6,00.3,0644.0,34.6
2016-12-12T00:55:00Z,0000380,01000600,0000.07,-000.04,0000.29,-000.04,-000.03,0000.04,-000.02,-000.12,0000.66,26.6,00.2,0644.0,34.6
2016-12-12T00:56:00Z,0000380,01000600,-000.40,0000.55,0000.33,-000.16,0000.50,0000.19,0000.16,-000.03,-000.37,26.5,00.2,0644.0,34.7
2016-12-12T00:57:00Z,0000380,41000600,,,,,,,,,,26.6,00.1,0644.0,34.7
2016-12-12T00:58:00Z,0000380,61000600,,,,,,,,,,26.5,00.3,0642.9,34.6
2016-12-12T00:59:00Z,0000380,21000600,,,,,,,,,,26.5,00.3,0642.9,34.6
2016-12-12T01:00:00Z,0000380,21000600,,,,,,,,,,26.5,00.3,0642.9,34.6
2016-12-12T01:01:00Z,0000380,21000600,,,,,,,,,,26.5,00.3,0642.9,34.6
2016-12-12T01:02:00Z,0000380,21000600,,,,,,,,,,26.5,00.3,0642.9,34.6
2016-12-12T01:03:00Z,0000380,61000600,,,,,,,,,,26.5,00.3,0642.9,34.6
2016-12-12T01:04:00Z,0000380,41000600,0000.43,0000.21,-000.07,-000.11,0000.02,-000.16,0000.13,0000.11,-000.34,26.4,00.3,0643.8,34.6
2016-12-12T01:05:00Z,0000380,01000600,0000.06,0000.09,0000.14,-000.00,0000.21,0000.13,0000.14,-000.13,0000.14,26.4,00.3,0643.8,34.6
2016-12-12T01:06:00Z,0000380,01000600,-001.00,0000.34,-000.01,0000.83,0000.41,0000.03,-000.28,0000.15,0000.20,26.4,00.3,0643.8,34.6
2016-12-12T01:07:00Z,0000380,01000600,-000.69,-000.19,-000.11,-000.17,-000.04,0000.17,-000.03,-000.03,-000.13,26.3,00.4,0643.8,34.6
2016-12-12T01:08:00Z,0000380,01000600,0000.37,-000.04,-000.41,0000.42,0000.24,0000.03,0000.17,0000.08,-000.06,26.3,00.3,0643.8,34.6
2016-12-12T01:09:00Z,0000380,01000600,0000.64,0000.26,-000.15,-000.40,0000.16,-000.30,0000.23,0000.02,0000.06,26.3,00.4,0643.8,34.6
2016-12-12T01:10:00Z,0000380,01000600,-001.06,0000.42,-000.60,-000.12,0000.07,-000.29,0000.05,-000.04,-000.07,26.3,00.4,0643.8,34.6
2016-12-12T01:11:00Z,0000380,01000600,-001.07,0000.65,-000.27,-000.16,-000.20,-000.08,-000.15,-000.06,0000.16,26.3,00.4,0643.7,34.6
2016-12-12T01:12:00Z,0000380,01000600,-000.13,-000.13,-000.37,0000.11,0000.20,-000.04,0000.15,-000.05,0000.18,26.3,00.4,0643.7,34.6
2016-12-12T01:13:00Z,0000380,01000600,-000.03,-000.13,-000.40,-000.14,0000.07,-000.14,-000.03,0000.16,-000.18,26.4,00.3,0643.7,34.7
2016-12-12T01:14:00Z,0000380,01000600,-000.97,-000.01,-000.27,-000.36,-000.18,0000.08,0000.05,-000.07,0000.15,26.4,00.4,0643.8,34.7
2016-12-12T01:15:00Z,0000380,01000600,0000.45,-000.37,-000.47,-000.23,0000.26,-000.02,-000.05,0000.18,-000.17,26.4,00.3,0643.7,34.7
2016-12-12T01:16:00Z,0000380,01000600,-000.26,-000.29,-000.31,-000.61,-000.17,0000.06,-000.10,0000.08,0000.21,26.5,00.4,0643.7,34.7
2016-12-12T01:17:00Z,0000380,01000600,0000.56,-000.17,-000.41,-000.15,0000.61,0000.15,0000.17,-000.00,-000.14,26.5,00.3,0643.7,34.7
2016-12-12T01:18:00Z,0000380,01000600,-000.14,0000.32,-000.22,-000.33,0000.53,-000.00,-000.32,-000.12,0000.02,26.5,00.4,0643.7,34.7
2016-12-12T01:19:00Z,0000380,01000600,0000.41,0000.04,-000.05,0000.01,0000.26,-000.09,0000.19,0000.02,-000.01,26.5,00.4,0643.7,34.7
2016-12-12T01:20:00Z,0000380,01000600,-000.17,-000.14,0000.15,-000.04,-000.38,0000.00,0000.03,0000.08,-000.04,26.4,00.4,0643.7,34.6
2016-12-12T01:21:00Z,0000380,01000600,-000.36,0000.20,-000.32,0000.46,-000.04,-000.03,0000.04,0000.05,0000.24,26.4,00.4,0643.7,34.6
2016-12-12T01:22:00Z,0000380,01000600,0000.28,0000.37,-000.33,-000.16,0000.59,0000.09,-000.12,-000.25,-000.09,26.4,00.4,0643.7,34.6
2016-12-12T01:23:00Z,0000380,01000600,-001.02,-000.46,-000.56,0000.20,0000.13,0000.26,0000.10,0000.04,-000.24,26.4,00.4,0643.7,34.6
2016-12-12T01:24:00Z,0000380,01000600,-000.04,-000.08,0000.10,-000.12,0000.18,0000.43,0000.24,0000.10,0000.33,26.4,00.5,0643.7,34.6
2016-12-12T01:25:00Z,0000380,01000600,-000.74,-000.29,0000.31,-000.34,0000.26,-000.02,-000.15,0000.13,-000.17,26.4,00.4,0643.7,34.6
2016-12-12T01:26:00Z,0000380,01000600,0000.86,-000.89,-000.54,-000.44,0000.21,0000.11,0000.11,-000.22,0000.11,26.4,00.4,0643.7,34.6
2016-12-12T01:27:00Z,0000380,01000600,-000.86,-000.32,-000.09,-000.21,0000.25,0000.02,-000.01,0000.07,0000.14,26.4,00.5,0643.7,34.7
2016-12-12T01:28:00Z,0000380,01000600,0000.32,0000.31,-000.27,-000.75,0000.32,0000.09,-000.00,-000.01,-000.22,26.5,00.4,0643.7,34.7
2016-12-12T01:29:00Z,0000380,01000600,-001.00,0000.10,-000.26,-000.19,0000.36,0000.24,-000.07,0000.11,0000.21,26.5,00.5,0643.7,34.7
2016-12-12T01:30:00Z,0000380,01000600,-001.48,0000.32,-000.06,0000.65,-000.01,0000.21,0000.07,0000.13,-000.08,26.6,00.5,0643.7,34.7
2016-12-12T01:31:00Z,0000380,01000600,-000.19,-000.31,0000.06,-000.16,0000.11,0000.24,0000.10,-000.17,-000.26,26.6,00.4,0643.7,34.7
2016-12-12T01:32:00Z,0000380,01000600,-000.35,0000.08,0000.23,-000.02,0000.66,0000.22,-000.23,0000.14,0000.09,26.6,00.4,0643.7,34.7
2016-12-12T01:33:00Z,0000380,01000600,-000.50,0000.35,-000.36,0000.10,-000.03,-000.23,0000.27,0000.16,0000.26,26.6,00.5,0643.7,34.7
2016-12-12T01:34:00Z,0000380,01000600,-000.50,-000.00,-000.22,-000.73,0000.09,-000.49,0000.03,-000.17,-000.07,26.6,00.5,0643.7,34.7
2016-12-12T01:35:00Z,0000380,01000600,-001.22,-000.13,-000.58,-000.12,-000.25,0000.07,0000.00,0000.10,0000.16,26.6,00.4,0643.7,34.7
2016-12-12T01:36:00Z,0000380,01000600,-000.31,0000.44,-000.20,-000.15,0000.24,0000.07,0000.03,0000.08,0000.09,26.6,00.4,0643.7,34.7
2016-12-12T01:37:00Z,0000380,01000600,-000.48,0000.03,-000.53,-000.19,0000.22,0000.01,0000.18,-000.00,-000.17,26.6,00.4,0643.7,34.7
2016-12-12T01:38:00Z,0000380,01000600,0000.88,-000.07,-000.09,-000.10,0000.09,-000.13,-000.00,-000.11,0000.03,26.6,00.5,0643.7,34.7
2016-12-12T01:39:00Z,0000380,01000600,-000.23,-000.33,-000.66,-000.13,0000.58,0000.06,-000.05,-000.22,0000.01,26.5,00.5,0643.7,34.6
2016-12-12T01:40:00Z,0000380,01000600,-001.27,0000.04,-000.25,-000.37,0000.19,-000.18,0000.01,0000.17,-000.21,26.6,00.5,0643.7,34.7
2016-12-12T01:41:00Z,0000380,01000600,-001.36,0000.42,-000.36,-001.01,0000.33,-000.07,-000.03,0000.13,0000.36,26.6,00.4,0643.7,34.7
2016-12-12T01:42:00Z,0000380,01000600,-000.35,0000.04,-000.38,0000.42,0000.10,0000.20,0000.08,-000.13,-000.17,26.6,00.5,0643.7,34.7
2016-12-12T01:43:00Z,0000380,01000600,-000.07,0000.52,-000.33,-000.17,0000.21,-000.07,-000.08,0000.23,0000.11,26.6,00.5,0643.7,34.7
2016-12-12T01:44:00Z,0000380,01000600,-000.73,-000.11,-000.23,0000.49,-000.12,-000.40,-000.15,-000.06,-000.09,26.6,00.5,0643.7,34.7
2016-12-12T01:45:00Z,0000380,01000600,0000.37,-000.01,-000.30,-000.28,0000.11,-000.39,-000.02,0000.01,-000.19,26.6,00.5,0643.7,34.7
2016-12-12T01:46:00Z,0000380,01000600,-000.72,-000.22,-000.56,0000.10,-000.15,-000.30,0000.14,0000.06,-000.01,26.6,00.4,0643.8,34.7
2016-12-12T01:47:00Z,0000380,01000600,0000.11,-000.03,-000.67,0000.28,0000.11,-000.14,0000.06,-000.10,0000.32,26.6,00.4,0643.7,34.7
2016-12-12T01:48:00Z,0000380,01000600,-000.08,-000.13,-000.70,-000.11,0000.36,-000.13,0000.05,0000.08,0000.02,26.6,00.4,0643.7,34.7
2016-12-12T01:49:00Z,0000380,01000600,-000.37,-000.01,-000.48,-000.37,0000.13,-000.04,-000.06,0000.06,-000.03,26.6,00.5,0643.7,34.7
2016-12-12T01:50:00Z,0000380,01000600,0000.16,0000.32,0000.24,0000.33,-000.02,-000.25,0000.04,0000.03,-000.20,26.6,00.4,0643.7,34.7
2016-12-12T01:51:00Z,0000380,01000600,-000.16,0000.36,-000.31,-000.04,0000.49,-000.28,-000.07,-000.08,0000.20,26.6,00.5,0643.7,34.7
2016-12-12T01:52:00Z,0000380,01000600,-000.63,0000.10,-000.33,0000.15,0000.25,0000.22,0000.09,0000.09,0000.04,26.6,00.5,0643.7,34.7
2016-12-12T01:53:00Z,0000380,01000600,0000.50,-000.12,-000.68,-000.34,0000.55,-000.26,0000.15,-000.14,-000.14,26.6,00.6,0643.6,34.6
2016-12-12T01:54:00Z,0000380,01000600,-000.44,-000.08,-000.13,-000.31,0000.27,0000.03,-000.25,0000.09,-000.20,26.5,00.5,0643.7,34.6
2016-12-12T01:55:00Z,0000380,01000600,0000.97,-000.52,-000.87,-000.41,0000.45,0000.27,0000.39,-000.05,0000.08,26.5,00.5,0643.6,34.6
2016-12-12T01:56:00Z,0000380,01000600,-001.11,-000.08,-000.43,0000.04,0000.48,-000.02,-000.29,0000.18,0000.28,26.6,00.5,0643.6,34.7
2016-12-12T01:57:00Z,0000380,41000600,,,,,,,,,,26.6,01.0,0643.6,34.7
2016-12-12T01:58:00Z,0000380,61000600,,,,,,,,,,26.5,00.5,0642.7,34.7
2016-12-12T01:59:00Z,0000380,21000600,,,,,,,,,,26.5,00.4,0642.6,34.7
2016-12-12T02:00:00Z,0000380,21000600,,,,,,,,,,26.5,00.4,0642.6,34.7
2016-12-12T02:01:00Z,0000380,21000600,,,,,,,,,,26.5,00.4,0642.6,34.7
2016-12-12T02:02:00Z,0000380,21000600,,,,,,,,,,26.5,00.4,0642.6,34.7
2016-12-12T02:03:00Z,0000380,61000600,,,,,,,,,,26.5,00.4,0642.6,34.6
2016-12-12T02:04:00Z,0000380,41000600,0000.44,0000.12,-000.09,0000.01,-000.13,-000.11,-000.06,0000.05,0000.12,26.5,00.5,0643.5,34.7
2016-12-12T02:05:00Z,0000380,01000600,0000.82,0000.07,0000.12,0000.45,0000.17,-000.08,-000.07,0000.10,-000.20,26.5,00.6,0643.6,34.6
2016-12-12T02:06:00Z,0000380,01000600,0000.76,0000.21,-000.04,0001.90,0000.02,0000.06,0000.00,-000.06,0000.12,26.5,00.4,0643.6,34.6
2016-12-12T02:07:00Z,0000380,01000600,-000.26,-000.12,-000.25,0000.62,-000.28,-000.03,0000.03,0000.10,-000.10,26.5,00.5,0643.6,34.6
2016-12-12T02:08:00Z,0000380,01000600,-000.08,-000.06,0000.06,0000.21,0000.35,-000.04,0000.11,-000.02,0000.09,26.5,00.5,0643.6,34.6
2016-12-12T02:09:00Z,0000380,01000600,0001.42,-000.38,-000.06,0000.57,0000.21,0000.27,0000.07,0000.04,-000.13,26.5,00.5,0643.6,34.6
2016-12-12T02:10:00Z,0000380,01000600,-000.04,0000.25,0000.64,0000.68,0000.17,0000.09,-000.07,-000.05,0000.43,26.5,00.5,0643.6,34.6
2016-12-12T02:11:00Z,0000380,01000600,0000.76,-000.58,0000.00,0000.22,-000.07,-000.14,-000.01,-000.01,-000.25,26.5,00.6,0643.6,34.7
2016-12-12T02:12:00Z,0000380,01000600,0000.33,-000.17,-000.05,0000.70,0000.15,-000.51,-000.10,0000.05,-000.07,26.5,00.5,0643.6,34.7
2016-12-12T02:13:00Z,0000380,01000600,-000.66,-000.55,0000.01,0000.49,0000.07,-000.09,0000.10,0000.01,-000.05,26.5,00.6,0643.6,34.7
2016-12-12T02:14:00Z,0000380,01000600,0000.16,-000.27,-000.36,0000.52,-000.23,0000.03,-000.06,0000.14,0000.38,26.5,00.6,0643.6,34.7
2016-12-12T02:15:00Z,0000380,01000600,0000.34,-000.36,-000.40,0000.45,-000.15,-000.01,0000.05,0000.05,-000.07,26.6,00.6,0643.6,34.7
2016-12-12T02:16:00Z,0000380,01000600,-000.33,-000.34,0000.24,0000.03,0000.01,0000.20,0000.11,0000.01,-000.03,26.6,00.6,0643.6,34.7
2016-12-12T02:17:00Z,0000380,01000600,-000.31,0000.14,-000.31,-000.18,-000.18,-000.41,0000.05,0000.02,-000.08,26.6,00.6,0643.5,34.7
2016-12-12T02:18:00Z,0000380,01000600,0000.45,0000.32,0000.16,0000.18,0000.22,-000.13,0000.14,0000.03,0000.30,26.6,00.6,0643.5,34.7
2016-12-12T02:19:00Z,0000380,01000600,-000.28,-000.15,0000.23,0000.15,0000.47,0000.03,-000.07,0000.02,0000.22,26.5,00.6,0643.5,34.7
2016-12-12T02:20:00Z,0000380,01000600,0000.06,0000.10,-000.36,0000.69,0000.27,-000.05,0000.03,0000.00,-000.14,26.5,00.6,0643.6,34.6
2016-12-12T02:21:00Z,0000380,01000600,0000.24,0000.02,0000.03,-000.08,-000.19,-000.22,0000.08,0000.03,-000.25,26.5,00.6,0643.5,34.7
2016-12-12T02:22:00Z,0000380,01000600,-000.09,0000.10,-000.01,0000.28,0000.06,0000.06,0000.03,-000.06,0000.01,26.5,00.7,0643.5,34.6
2016-12-12T02:23:00Z,0000380,01000600,0000.87,-000.53,0000.15,-000.34,-000.18,0000.15,0000.21,0000.13,0000.01,26.5,00.6,0643.5,34.6
2016-12-12T02:24:00Z,0000380,01000600,0000.70,0000.22,0000.21,0000.17,0000.28,0000.22,0000.01,-000.11,0000.08,26.5,00.7,0643.5,34.6
2016-12-12T02:25:00Z,0000380,01000600,-000.08,0000.55,0000.08,-000.06,0000.13,0000.07,-000.23,-000.02,-000.19,26.5,00.7,0643.5,34.6
2016-12-12T02:26:00Z,0000380,01000600,0000.38,-000.05,-000.18,0000.45,-000.10,-000.17,-000.18,0000.02,-000.00,26.5,00.6,0643.4,34.6
2016-12-12T02:27:00Z,0000380,01000600,0000.38,-000.26,0000.03,-000.10,-000.27,0000.33,0000.05,0000.06,0000.21,26.5,00.7,0643.4,34.7
2016-12-12T02:28:00Z,0000380,01000600,0000.49,0000.42,0000.18,0000.50,0000.20,-000.13,0000.07,0000.04,-000.15,26.5,00.6,0643.4,34.7
2016-12-12T02:29:00Z,0000380,01000600,0000.40,-000.16,0000.43,0001.00,-000.12,-000.09,-000.11,-000.06,-000.06,26.6,00.6,0643.4,34.7
2016-12-12T02:30:00Z,0000380,01000600,-000.00,0000.01,-000.04,0000.77,0000.36,-000.06,-000.09,-000.16,0000.05,26.6,00.6,0643.5,34.7
2016-12-12T02:31:00Z,0000380,01000600,0000.33,0000.14,0000.20,-000.13,0000.35,0000.02,0000.15,0000.13,0000.23,26.6,00.5,0643.5,34.7
2016-12-12T02:32:00Z,0000380,01000600,0000.03,0000.25,-000.28,0000.42,0000.10,0000.30,-000.21,-000.09,-000.07,26.6,00.5,0643.5,34.7
2016-12-12T02:33:00Z,0000380,01000600,-000.04,-000.05,-000.10,0000.90,-000.08,-000.22,-000.01,-000.04,0000.17,26.6,00.5,0643.5,34.7
2016-12-12T02:34:00Z,0000380,01000600,0000.19,-000.32,0000.10,0000.28,-000.07,0000.54,-000.01,0000.13,-000.61,26.5,00.5,0643.5,34.7
2016-12-12T02:35:00Z,0000380,01000600,0000.23,-000.19,-000.10,0000.46,-000.18,-000.15,0000.03,-000.36,0000.27,26.5,00.5,0643.5,34.7
2016-12-12T02:36:00Z,0000380,01000600,-000.50,0000.05,0000.03,0000.05,-000.17,-000.39,-000.10,0000.15,-000.07,26.5,00.5,0643.5,34.7
2016-12-12T02:37:00Z,0000380,01000600,0000.39,0000.27,0000.66,0000.20,0000.36,0000.08,-000.02,0000.17,0000.47,26.5,00.5,0643.5,34.6
2016-12-12T02:38:00Z,0000380,01000600,0000.26,-000.03,0000.87,0000.35,0000.40,0000.56,-000.09,-000.07,-000.20,26.5,00.4,0643.6,34.6
2016-12-12T02:39:00Z,0000380,01000600,0000.06,-000.05,0000.41,0000.66,-000.01,-000.38,0000.17,-000.12,-000.23,26.5,00.6,0643.6,34.6
2016-12-12T02:40:00Z,0000380,01000600,-000.06,-000.63,0000.20,0000.37,0000.06,0000.13,0000.04,0000.02,-000.07,26.5,00.4,0643.5,34.6
2016-12-12T02:41:00Z,0000380,01000600,-000.00,0000.05,-000.22,-000.08,-000.14,-000.32,-000.04,0000.11,0000.13,26.5,00.4,0643.5,34.6
2016-12-12T02:42:00Z,0000380,01000600,0000.86,-000.36,-000.42,0000.59,0000.12,-000.26,0000.04,0000.13,0000.05,26.5,00.4,0643.5,34.7
2016-12-12T02:43:00Z,0000380,01000600,0000.78,0000.29,0000.26,0000.22,0000.11,0000.05,0000.09,-000.13,0000.08,26.6,00.4,0643.5,34.7
2016-12-12T02:44:00Z,0000380,01000600,0000.22,0000.34,-000.04,0000.20,0000.23,-000.19,-000.25,0000.05,0000.10,26.6,00.4,0643.5,34.7
2016-12-12T02:45:00Z,0000380,01000600,-000.16,-000.20,0000.14,-000.32,0000.27,-000.32,-000.05,-000.25,-000.30,26.6,00.4,0643.5,34.7
2016-12-12T02:46:00Z,0000380,01000600,0000.45,-000.02,0000.31,0000.15,-000.02,-000.30,0000.10,0000.02,0000.03,26.6,00.4,0643.6,34.7
2016-12-12T02:47:00Z,0000380,01000600,0000.12,0000.04,0000.22,0000.70,0000.36,-000.37,-000.04,0000.04,-000.06,26.6,00.3,0643.6,34.7
2016-12-12T02:48:00Z,0000380,01000600,0000.08,0000.05,0000.34,0000.39,-000.10,-000.11,-000.18,-000.04,0000.25,26.6,00.3,0643.6,34.7
2016-12-12T02:49:00Z,0000380,01000600,-000.33,-000.95,0000.06,-000.18,-000.07,-000.07,0000.14,0000.17,-000.10,26.5,00.3,0643.6,34.7
2016-12-12T02:50:00Z,0000380,01000600,0000.55,-000.01,-000.11,0000.18,-000.44,0000.07,-000.05,-000.26,-000.13,26.6,00.3,0643.6,34.7
2016-12-12T02:51:00Z,0000380,01000600,0000.12,-000.09,0000.03,-000.11,-000.03,0000.01,0000.09,0000.18,-000.03,26.6,00.3,0643.6,34.7
2016-12-12T02:52:00Z,0000380,01000600,0000.07,-000.59,-000.08,0000.39,-000.10,-000.06,-000.18,0000.03,0000.27,26.5,00.2,0643.6,34.6
2016-12-12T02:53:00Z,0000380,01000600,0000.31,-000.43,-000.26,0000.46,0000.01,0000.16,0000.04,-000.24,-000.36,26.5,00.2,0643.6,34.6
2016-12-12T02:54:00Z,0000380,01000600,0000.18,0000.06,-000.35,0000.75,-000.01,0000.18,0000.17,-000.10,0000.21,26.5,00.2,0643.6,34.6
2016-12-12T02:55:00Z,0000380,01000600,-000.71,-000.38,-000.17,0000.24,0000.22,-000.06,-000.10,0000.18,0000.02,26.5,00.2,0643.5,34.6
2016-12-12T02:56:00Z,0000380,01000600,0000.86,-000.30,-000.33,0001.06,0000.07,-000.07,-000.15,-000.07,0000.07,26.5,00.2,0643.5,34.7
2016-12-12T02:57:00Z,0000380,41000600,,,,,,,,,,26.6,00.4,0643.6,34.7
2016-12-12T02:58:00Z,0000380,61000600,,,,,,,,,,26.5,00.1,0642.6,34.7
2016-12-12T02:59:00Z,0000380,21000600,,,,,,,,,,26.6,00.1,0642.6,34.7
2016-12-12T03:00:00Z,0000380,21000600,,,,,,,,,,26.6,00.1,0642.6,34.7
2016-12-12T03:01:00Z,0000380,21000600,,,,,,,,,,26.6,00.1,0642.6,34.7
2016-12-12T03:02:00Z,0000380,21000600,,,,,,,,,,26.6,00.1,0642.6,34.7
2016-12-12T03:03:00Z,0000380,61000600,,,,,,,,,,26.6,00.1,0642.6,34.7
2016-12-12T03:04:00Z,0000380,41000600,0000.14,-000.50,0000.07,-000.05,0000.31,0000.14,-000.17,0000.16,-000.37,26.6,00.1,0643.5,34.7
2016-12-12T03:05:00Z,0000380,01000600,0000.33,0000.22,-000.08,0000.17,-000.13,-000.04,0000.17,0000.06,0000.09,26.6,00.1,0643.6,34.7
2016-12-12T03:06:00Z,0000380,01000600,-000.22,-000.32,0000.06,0000.15,-000.13,0000.07,0000.00,-000.03,0000.18,26.6,00.1,0643.6,34.6
2016-12-12T03:07:00Z,0000380,01000600,0000.97,0000.24,-000.38,0000.10,-000.51,-000.10,-000.02,-000.12,0000.07,26.6,00.1,0643.6,34.6
2016-12-12T03:08:00Z,0000380,01000600,-000.16,-000.09,0000.16,-000.27,-000.01,0000.21,-000.08,-000.04,-000.29,26.6,00.1,0643.6,34.6
2016-12-12T03:09:00Z,0000380,01000600,-000.21,-000.01,-000.24,0000.21,-000.18,-000.19,0000.08,-000.03,-000.14,26.6,00.1,0643.6,34.6
2016-12-12T03:10:00Z,0000380,01000600,-000.71,0000.43,-000.10,-000.09,0000.56,-000.20,-000.15,0000.03,0000.43,26.6,00.1,0643.6,34.6
2016-12-12T03:11:00Z,0000380,01000600,0000.88,-000.15,-000.17,-000.34,-000.01,-000.35,-000.00,-000.00,-000.08,26.6,00.1,0643.6,34.7